DELTA 1 DEB, 42083

Orbit data source: Space-Track

DELTA 1 DEB, 42083 is space debris in SSO originally from a launch on Sun, 15 Dec 1968 UTC launched from the Air Force Western Test Range (AFWTR). Debris objects in space refer to the collection of defunct objects orbiting the Earth. Examples of debris include non-operational satellites, rocket bodies, and fragments generated from explosions, collisions, or faulty payload assembly.

Loading next visibility...
Identifier
42083, 1968-114K
Orbit
SSO
Country
Flag of USUS
Related business
Manufacturer
Aerojet
Mission
Spacecraft
Bus & Motor
Unknown
Mass
Unknown
Launch date (UTC)
Icon of a cake. It is the launch day of the satellite!1968-12-15 (57 years ago)
Launch vehicle
Unknown
Launch site
Air Force Western Test Range (AFWTR)
Object type
Payload
Rocket body
Debris
Shape & HBR
Unknown shape, 0.1 m
Radar Cross Section
Small (<0.1 m²)

Expand to show TLE details & history
Last TLE update: 2 days ago

TLE from 2 days ago
0 DELTA 1 DEB
1 42083U 68114K   25347.28836910  .00000536  00000-0  15682-2 0  9993
2 42083 101.8827   2.1802 0281410 137.8922 240.0068 13.02202285 23973
Epoch: 2025-12-13T06:55Z
TLE epoch observation values (Epoch: 2025-12-13T06:55:15.090Z)
Latitude
14.80062°
Longitude
172.97819°
Altitude
1,367.23 km
Speed
7.124 km/s
True Right ascension
23h 56m 02s
True Declination
14° 43' 21"
Sunlit
Object was in daylight at epoch
Visualization orbit readout
Latitude
Unknown
Longitude
Unknown
Altitude
Unknown
Speed
Unknown
Apparent Right ascension
Unknown
Apparent Declination
Unknown
Sunlit
N/A
Visualization observer readout
Local Sidereal Time
13:24:37
Azimuth
Unknown
Elevation
Unknown
Doppler factor
Unknown
Orbital elements
Apogee altitude
1,465.648 km
Perigee altitude
1,036.267 km
Semi-major axis
7,629.095 km
Eccentricity
0.02814
Inclination
101.8827°
RAAN
2.1802°
Arg. of periapsis
137.8922°
True anomaly
237.26326°
Mean anomaly
240.0068°
Eccentric anomaly
238.63013°
Mean motion
3.25712 °/min
Orbital period
110.53 mins
BSTAR
0.0015682
Loading maneuver chart data...
Computing Atmospheric mass density...
Loading historical data...
Loading historical data...
Loading historical data...
Loading historical data...
Loading historical data...
Loading historical data...
Loading historical data...

Documentation

Showing up to 5 results
|